Flag for U.S.A. Weather past 2 weeks in Wichita, Kansas, U.S.A.

Now
80 °F

Broken clouds.


Feels Like: 82 °F
Forecast: 73 / 94 °F
Wind: 9 mph from Northwest

Location: Wichita Mid-Continent Airport

Current Time: Aug 27, 2014 at 10:09:32 AM

Latest Report: Aug 27, 2014 at 8:53 AM


Visibility: 10 mi

Pressure: 30.07 "Hg

Humidity: 60%

Dew point: 65 °F

Location of WichitaLocation

Historic Weather in Wichita — Graph

°F

Wichita temperature yesterday

Maximum temperature yesterday: 95 °F (at 3:53 PM)
Minimum temperature yesterday: 72 °F (at 4:53 AM)
Average temperature yesterday: 81 °F

Past Weeks' High & Low Weather Summary

 TemperatureHumidityPressure
High102 °F (Aug 24, 3:53 PM)90% (Aug 18, 2:53 AM)30.16 "Hg (Aug 18, 2:53 AM)
Low63 °F (Aug 13, 5:53 AM)17% (Aug 23, 3:53 PM)29.73 "Hg (Aug 19, 5:53 PM)
Average83 °F55%29.88 "Hg
* Reported Aug 12 8:53 AM — Aug 27 8:53 AM, Wichita, Weather by CustomWeather, © 2014

Note: Actual official high and low records may vary slightly from our data, if they occured in-between our weather recording intervals... More about our weather records

Advertising

Wichita weather history for previous 24 hours

 ConditionsComfort  
Time TempWeatherWind HumidityBarometerVisibility
8:53 AM
Aug 27
80 °FBroken clouds.9 mph60%30.07 "Hg10 mi
7:53 AM74 °FPassing clouds.3 mph82%30.08 "Hg10 mi
6:53 AM71 °FPartly cloudy.No wind84%30.05 "Hg10 mi
5:53 AM73 °FPartly cloudy.5 mph81%30.03 "Hg10 mi
4:53 AM73 °FPartly cloudy.5 mph79%30.00 "Hg10 mi
3:53 AM75 °FPassing clouds.8 mph76%30.01 "Hg10 mi
2:53 AM76 °FPartly cloudy.6 mph77%30.02 "Hg10 mi
1:53 AM78 °FPartly cloudy.7 mph71%30.02 "Hg10 mi
12:53 AM81 °FPassing clouds.7 mph65%30.01 "Hg10 mi
11:53 PM
Aug 26
81 °FPartly cloudy.5 mph62%30.02 "Hg10 mi
10:53 PM80 °FPassing clouds.6 mph69%30.01 "Hg10 mi
9:53 PM80 °FPassing clouds.3 mph74%30.01 "Hg10 mi
8:53 PM80 °FBroken clouds.6 mph69%30.00 "Hg10 mi
7:53 PM81 °FBroken clouds.7 mph69%29.98 "Hg10 mi
6:53 PM80 °FLight rain. Partly sunny.5 mph69%29.97 "Hg10 mi
5:53 PM83 °FThunderstorms. Broken clouds.9 mph57%29.98 "Hg10 mi
5:04 PM90 °FThunderstorms. Broken clouds.9 mph43%30.04 "Hg10 mi
3:53 PM95 °FBroken clouds.9 mph39%29.97 "Hg10 mi
2:53 PM93 °FPartly sunny.9 mph41%30.01 "Hg10 mi
1:53 PM93 °FBroken clouds.9 mph41%30.03 "Hg10 mi
12:53 PM93 °FBroken clouds.14 mph41%30.03 "Hg10 mi
11:53 AM90 °FScattered clouds.10 mph45%30.05 "Hg10 mi
10:53 AM85 °FPassing clouds.14 mph51%30.07 "Hg10 mi
Weather by CustomWeather, © 2014

See weather overviewHow to use our weather pages